Bar Harbor, ME

6:17 AM EST on December 11, 2019 (GMT -0500)
Hancock County-Bar Harbor

Weather History for KBHB - October, 2019

Change the Weather History Date:

Saturday, October 5, 2019

  Actual Average Record
Temperature  
Mean Temperature 46 °F -  
Max Temperature 57 °F 60 °F 73 °F (2017)
Min Temperature 34 °F 42 °F 30 °F (1996)
Degree Days  
Heating Degree Days 20    
Moisture  
Dew Point 34 °F    
Average Humidity 69    
Maximum Humidity 97    
Minimum Humidity 40    
Precipitation  
Precipitation 0.00 in - - ()
Sea Level Pressure  
Sea Level Pressure 30.34 in    
Wind  
Wind Speed 4 mph (NW)    
Max Wind Speed 10 mph    
Max Gust Speed 20 mph    
Visibility 10 miles    
Events      
Averages and records for this station are not official NWS values.
T = Trace of Precipitation, MM = Missing Value Source: NWS Daily Summary

Daily Weather History Graph

Daily Weather History Graph

Search for Another Location

Airport or City:

Astronomy

Oct. 05, 2019 Rise Set
Actual Time 6:35 AM EDT 6:07 PM EDT
Civil Twilight 6:06 AM EDT 6:36 PM EDT
Nautical Twilight 5:33 AM EDT 7:09 PM EDT
Astronomical Twilight 4:59 AM EDT 7:43 PM EDT
Moon 2:11 PM EDT (10/5) 11:14 PM EDT (10/5)
Length of Visible Light 12h 29m
Length of Day
11h 31m
Waxing Crescent, 50% of the Moon is Illuminated
Oct 5
Waxing Crescent
Oct 5
First Quarter
Oct 13
Full
Oct 21
Last Quarter
Oct 27
New

Hourly Weather History & Observations

Time (EDT) Temp. Windchill Dew Point Humidity Pressure Visibility Wind Dir Wind Speed Gust Speed Precip Events Conditions
12:56 AM 37.0 °F - 32.0 °F 82% 30.26 in 10.0 mi Calm Calm - N/A   Clear
1:56 AM 37.0 °F 33.3 °F 32.0 °F 82% 30.26 in 10.0 mi NW 4.6 mph - N/A   Clear
2:56 AM 37.9 °F 32.7 °F 32.0 °F 79% 30.27 in 10.0 mi NW 6.9 mph - N/A   Clear
3:56 AM 39.0 °F 33.4 °F 30.9 °F 73% 30.28 in 10.0 mi NNW 8.1 mph - N/A   Clear
4:56 AM 39.0 °F 34.8 °F 30.9 °F 73% 30.31 in 10.0 mi NW 5.8 mph - N/A   Clear
5:56 AM 37.0 °F 33.3 °F 30.9 °F 79% 30.34 in 10.0 mi NW 4.6 mph - N/A   Clear
6:56 AM 34.0 °F - 30.9 °F 89% 30.36 in 10.0 mi Calm Calm - N/A   Clear
7:56 AM 39.9 °F 35.1 °F 33.1 °F 77% 30.37 in 10.0 mi NW 6.9 mph - N/A   Clear
8:56 AM 45.0 °F 40.6 °F 34.0 °F 65% 30.38 in 10.0 mi North 8.1 mph - N/A   Clear
9:56 AM 46.9 °F - 32.0 °F 56% 30.39 in 10.0 mi NNW 10.4 mph 19.6 mph N/A   Clear
10:56 AM 48.9 °F - 34.0 °F 56% 30.38 in 10.0 mi North 10.4 mph 17.3 mph N/A   Clear
11:56 AM 51.1 °F - 35.1 °F 54% 30.37 in 10.0 mi WNW 8.1 mph 16.1 mph N/A   Clear
12:56 PM 53.1 °F - 34.0 °F 48% 30.35 in 10.0 mi NNW 9.2 mph - N/A   Clear
1:56 PM 55.0 °F - 35.1 °F 47% 30.34 in 10.0 mi Variable 5.8 mph - N/A   Clear
2:56 PM 55.9 °F - 33.1 °F 42% 30.33 in 10.0 mi North 8.1 mph - N/A   Clear
3:56 PM 57.9 °F - 34.0 °F 41% 30.33 in 10.0 mi Variable 5.8 mph - N/A   Clear
4:56 PM 57.0 °F - 33.1 °F 40% 30.33 in 10.0 mi NW 3.5 mph - N/A   Clear
5:56 PM 50.0 °F - 37.9 °F 63% 30.33 in 10.0 mi Calm Calm - N/A   Clear
6:56 PM 45.0 °F - 37.0 °F 74% 30.34 in 10.0 mi Calm Calm - N/A   Clear
7:56 PM 41.0 °F - 37.0 °F 86% 30.35 in 10.0 mi Calm Calm - N/A   Clear
8:56 PM 46.0 °F 44.8 °F 37.0 °F 71% 30.37 in 10.0 mi West 3.5 mph - N/A   Clear
9:56 PM 41.0 °F 39.0 °F 37.0 °F 86% 30.37 in 10.0 mi WNW 3.5 mph - N/A   Clear
10:56 PM 39.9 °F 36.7 °F 39.0 °F 97% 30.38 in 10.0 mi SSW 4.6 mph - N/A   Clear
11:56 PM 39.9 °F - 39.0 °F 97% 30.37 in 10.0 mi Calm Calm - N/A   Clear